Weather History for KAFF - September, 2013

Change the Weather History Date:

Sunday, September 15, 2013

  Actual Average Record
Temperature  
Mean Temperature 56 °F -  
Max Temperature 62 °F 70 °F 91 °F (2000)
Min Temperature 51 °F 44 °F 35 °F (2003)
Degree Days  
Heating Degree Days 8    
Growing Degree Days 6 (Base 50)    
Moisture  
Dew Point 54 °F    
Average Humidity 94    
Maximum Humidity 100    
Minimum Humidity 68    
Precipitation  
Precipitation 0.00 in - - ()
Sea Level Pressure  
Sea Level Pressure 30.30 in    
Wind  
Wind Speed 9 mph (NW)    
Max Wind Speed 15 mph    
Max Gust Speed 17 mph    
Visibility 7 miles    
Events Rain , Thunderstorm    
Averages and records for this station are not official NWS values.
T = Trace of Precipitation, MM = Missing Value Source: NWS Daily Summary

Daily Weather History Graph

Daily Weather History Graph

Search for Another Location

Airport or City:

Trip Planner

Search our weather history database for the weather conditions in past years. The results will help you decide how hot, cold, wet, or windy it might be!

Date:

Astronomy

Sep. 15, 2013 Rise Set
Actual Time 6:40 AM MDT 7:07 PM MDT
Civil Twilight 6:14 AM MDT 7:33 PM MDT
Nautical Twilight 5:42 AM MDT 8:05 PM MDT
Astronomical Twilight 5:10 AM MDT 8:37 PM MDT
Moon 4:34 PM MDT (9/15) 2:23 AM MDT (9/15)
Length of Visible Light 13h 19m
Length of Day
12h 26m
Waxing Gibbous, 82% of the Moon is Illuminated
Sep 15
Waxing Gibbous
Sep 19
Full
Sep 26
Last Quarter
Oct 4
New
Oct 11
First Quarter

Hourly Weather History & Observations

Time (MDT) Temp. Dew Point Humidity Pressure Visibility Wind Dir Wind Speed Gust Speed Precip Events Conditions
12:55 AM 51.8 °F 50.0 °F 94% 30.12 in 10.0 mi North 10.4 mph - N/A   Clear
1:55 AM 55.4 °F 51.8 °F 88% 30.14 in 10.0 mi NNW 10.4 mph - N/A   Mostly Cloudy
2:55 AM 55.4 °F 53.6 °F 94% 30.15 in 10.0 mi North 9.2 mph - N/A   Mostly Cloudy
3:55 AM 55.4 °F 53.6 °F 94% 30.17 in 10.0 mi NNW 10.4 mph - N/A   Mostly Cloudy
4:55 AM 55.4 °F 53.6 °F 94% 30.17 in 10.0 mi NNW 8.1 mph - N/A   Partly Cloudy
5:55 AM 55.4 °F 53.6 °F 94% 30.19 in 10.0 mi North 11.5 mph - N/A   Partly Cloudy
6:55 AM 55.4 °F 51.8 °F 88% 30.21 in 10.0 mi NNW 10.4 mph - N/A   Mostly Cloudy
7:55 AM 55.4 °F 51.8 °F 88% 30.23 in 10.0 mi North 13.8 mph - N/A   Mostly Cloudy
8:55 AM 57.2 °F 51.8 °F 82% 30.24 in 10.0 mi North 12.7 mph - N/A   Partly Cloudy
9:55 AM 60.8 °F 51.8 °F 72% 30.26 in 10.0 mi North 15.0 mph - N/A   Scattered Clouds
10:55 AM 62.6 °F 51.8 °F 68% 30.27 in 10.0 mi North 9.2 mph - N/A   Clear
11:09 AM 62.6 °F 51.8 °F 68% 30.27 in 10.0 mi North 9.2 mph - N/A   Mostly Cloudy
11:20 AM 62.6 °F 51.8 °F 68% 30.27 in 10.0 mi NNE 10.4 mph - N/A   Mostly Cloudy
11:52 AM 62.6 °F 51.8 °F 68% 30.27 in 10.0 mi NNW 12.7 mph 17.3 mph N/A   Mostly Cloudy
11:55 AM 62.6 °F 51.8 °F 68% 30.27 in 10.0 mi NNW 11.5 mph 17.3 mph N/A   Mostly Cloudy
11:56 AM 62.6 °F 51.8 °F 68% 30.27 in 10.0 mi NNW 11.5 mph 17.3 mph N/A   Mostly Cloudy
12:05 PM 62.6 °F 53.6 °F 72% 30.27 in 10.0 mi NW 12.7 mph - N/A Rain , Thunderstorm Light Rain
12:14 PM 59.0 °F 53.6 °F 82% 30.27 in 10.0 mi NW 12.7 mph - N/A Rain , Thunderstorm Light Rain
12:17 PM 59.0 °F 53.6 °F 82% 30.27 in 10.0 mi NNW 11.5 mph - N/A Thunderstorm Overcast
12:18 PM 59.0 °F 53.6 °F 82% 30.27 in 10.0 mi NNW 11.5 mph - N/A Thunderstorm Thunderstorm
12:24 PM 59.0 °F 53.6 °F 82% 30.27 in 10.0 mi NW 10.4 mph - N/A Rain , Thunderstorm Light Thunderstorms and Rain
12:30 PM 59.0 °F 55.4 °F 88% 30.27 in 10.0 mi NW 12.7 mph - N/A Rain , Thunderstorm Light Thunderstorms and Rain
12:33 PM 57.2 °F 55.4 °F 94% 30.27 in 8.0 mi NW 11.5 mph - N/A Rain Light Rain
12:37 PM 57.2 °F 55.4 °F 94% 30.27 in 5.0 mi NW 10.4 mph - N/A Rain , Thunderstorm Thunderstorms and Rain
12:38 PM 57.2 °F 55.4 °F 94% 30.27 in 4.0 mi NW 10.4 mph - N/A Rain , Thunderstorm Heavy Thunderstorms and Rain
12:39 PM 57.2 °F 55.4 °F 94% 30.27 in 4.0 mi NW 10.4 mph - N/A Rain , Thunderstorm Heavy Thunderstorms and Rain
12:40 PM 57.2 °F 55.4 °F 94% 30.27 in 3.0 mi NW 9.2 mph - N/A Rain , Thunderstorm Heavy Thunderstorms and Rain
12:43 PM 57.2 °F 55.4 °F 94% 30.27 in 2.5 mi NW 8.1 mph - N/A Rain , Thunderstorm Heavy Thunderstorms and Rain
12:49 PM 57.2 °F 55.4 °F 94% 30.28 in 2.5 mi WNW 5.8 mph - N/A Rain , Thunderstorm Heavy Thunderstorms and Rain
12:50 PM 57.2 °F 55.4 °F 94% 30.28 in 3.0 mi WNW 5.8 mph - N/A Rain , Thunderstorm Heavy Thunderstorms and Rain
12:53 PM 57.2 °F 55.4 °F 94% 30.28 in 3.0 mi NW 8.1 mph - N/A Rain , Thunderstorm Thunderstorms and Rain
12:55 PM 57.2 °F 55.4 °F 94% 30.28 in 3.0 mi NW 6.9 mph - N/A Rain , Thunderstorm Thunderstorms and Rain
12:56 PM 57.2 °F 55.4 °F 94% 30.28 in 4.0 mi NW 6.9 mph - N/A Rain , Thunderstorm Thunderstorms and Rain
12:58 PM 57.2 °F 55.4 °F 94% 30.28 in 5.0 mi NW 8.1 mph - N/A Rain , Thunderstorm Thunderstorms and Rain
1:14 PM 57.2 °F 55.4 °F 94% 30.29 in 4.0 mi NNW 9.2 mph - N/A Rain , Thunderstorm Heavy Thunderstorms and Rain
1:16 PM 57.2 °F 55.4 °F 94% 30.29 in 3.0 mi NNW 8.1 mph - N/A Rain , Thunderstorm Heavy Thunderstorms and Rain
1:20 PM 57.2 °F 55.4 °F 94% 30.28 in 3.0 mi NNW 10.4 mph - N/A Rain , Thunderstorm Heavy Rain
1:24 PM 57.2 °F 57.2 °F 100% 30.28 in 4.0 mi NNW 10.4 mph - N/A Rain , Thunderstorm Light Rain
1:26 PM 57.2 °F 57.2 °F 100% 30.28 in 5.0 mi NNW 9.2 mph - N/A Rain , Thunderstorm Light Rain
1:27 PM 57.2 °F 57.2 °F 100% 30.28 in 6.0 mi NNW 9.2 mph - N/A Rain , Thunderstorm Light Rain
1:32 PM 57.2 °F 57.2 °F 100% 30.28 in 10.0 mi NNW 9.2 mph - N/A Rain , Thunderstorm Light Rain
1:40 PM 57.2 °F 57.2 °F 100% 30.28 in 10.0 mi NNW 8.1 mph - N/A Thunderstorm Light Drizzle
1:43 PM 57.2 °F 57.2 °F 100% 30.29 in 10.0 mi NNW 6.9 mph - N/A   Scattered Clouds
1:55 PM 57.2 °F 57.2 °F 100% 30.29 in 10.0 mi NW 6.9 mph - N/A   Scattered Clouds
2:01 PM 57.2 °F 57.2 °F 100% 30.29 in 10.0 mi NNW 8.1 mph - N/A Thunderstorm Thunderstorm
2:05 PM 57.2 °F 55.4 °F 94% 30.29 in 10.0 mi NW 9.2 mph - N/A Rain , Thunderstorm Light Thunderstorms and Rain
2:16 PM 57.2 °F 55.4 °F 94% 30.29 in 10.0 mi NNW 8.1 mph - N/A Rain Light Rain
2:29 PM 57.2 °F 55.4 °F 94% 30.28 in 9.0 mi NNW 8.1 mph - N/A Rain Rain
2:39 PM 57.2 °F 57.2 °F 100% 30.28 in 6.0 mi NNW 10.4 mph - N/A Rain Rain
2:46 PM 57.2 °F 55.4 °F 94% 30.28 in 7.0 mi NW 11.5 mph - N/A Rain , Thunderstorm Light Rain
2:55 PM 59.0 °F 55.4 °F 88% 30.28 in 10.0 mi NNW 12.7 mph - N/A   Light Drizzle
2:59 PM 57.2 °F 55.4 °F 94% 30.28 in 10.0 mi NNW 13.8 mph - N/A   Overcast
3:07 PM 57.2 °F 55.4 °F 94% 30.28 in 10.0 mi NNW 13.8 mph - N/A   Mostly Cloudy
3:13 PM 57.2 °F 53.6 °F 88% 30.29 in 10.0 mi NNW 12.7 mph - N/A   Mostly Cloudy
3:47 PM 57.2 °F 53.6 °F 88% 30.29 in 10.0 mi NNW 11.5 mph - N/A   Mostly Cloudy
3:51 PM 57.2 °F 53.6 °F 88% 30.29 in 10.0 mi NNW 11.5 mph - N/A Rain Light Rain
3:55 PM 55.4 °F 51.8 °F 88% 30.29 in 10.0 mi NNW 11.5 mph - N/A Rain Light Rain
4:09 PM 55.4 °F 53.6 °F 94% 30.30 in 10.0 mi NNW 8.1 mph - N/A Rain Light Rain
4:29 PM 55.4 °F 53.6 °F 94% 30.30 in 5.0 mi NNW 8.1 mph - N/A Rain Heavy Rain
4:32 PM 55.4 °F 53.6 °F 94% 30.30 in 4.0 mi NNW 6.9 mph - N/A Rain Heavy Rain
4:35 PM 55.4 °F 53.6 °F 94% 30.31 in 4.0 mi NNW 6.9 mph - N/A Rain Heavy Rain
4:36 PM 55.4 °F 53.6 °F 94% 30.30 in 4.0 mi NNW 6.9 mph - N/A Rain Heavy Rain
4:40 PM 55.4 °F 53.6 °F 94% 30.30 in 3.0 mi North 8.1 mph - N/A Rain Heavy Rain
4:42 PM 55.4 °F 53.6 °F 94% 30.30 in 4.0 mi North 6.9 mph - N/A Rain Heavy Rain
4:44 PM 55.4 °F 53.6 °F 94% 30.30 in 4.0 mi NNW 6.9 mph - N/A Rain Rain
4:55 PM 55.4 °F 53.6 °F 94% 30.31 in 4.0 mi NNW 8.1 mph - N/A Rain Rain
4:56 PM 55.4 °F 53.6 °F 94% 30.30 in 5.0 mi NNW 6.9 mph - N/A Rain Rain
5:01 PM 55.4 °F 55.4 °F 100% 30.30 in 5.0 mi North 6.9 mph - N/A Rain Rain
5:09 PM 55.4 °F 53.6 °F 94% 30.30 in 5.0 mi North 9.2 mph - N/A Rain Heavy Rain
5:17 PM 55.4 °F 55.4 °F 100% 30.30 in 8.0 mi North 10.4 mph - N/A Rain Rain
5:18 PM 55.4 °F 55.4 °F 100% 30.30 in 8.0 mi North 11.5 mph - N/A Rain Rain
5:28 PM 55.4 °F 55.4 °F 100% 30.30 in 10.0 mi NNW 9.2 mph - N/A Rain Rain
5:34 PM 57.2 °F 55.4 °F 94% 30.30 in 10.0 mi NNW 9.2 mph - N/A Rain Light Rain
5:44 PM 57.2 °F 55.4 °F 94% 30.30 in 10.0 mi North 12.7 mph - N/A Rain Rain
5:55 PM 57.2 °F 53.6 °F 88% 30.30 in 10.0 mi NNW 9.2 mph - N/A Rain Light Rain
6:06 PM 57.2 °F 53.6 °F 88% 30.31 in 10.0 mi NNW 9.2 mph - N/A   Overcast
6:39 PM 55.4 °F 53.6 °F 94% 30.32 in 10.0 mi NW 8.1 mph - N/A   Overcast
6:40 PM 55.4 °F 53.6 °F 94% 30.32 in 10.0 mi NW 8.1 mph - N/A   Overcast
6:55 PM 55.4 °F 53.6 °F 94% 30.32 in 10.0 mi NW 8.1 mph - N/A   Mostly Cloudy
7:55 PM 55.4 °F 53.6 °F 94% 30.33 in 10.0 mi NW 8.1 mph - N/A   Overcast
7:56 PM 55.4 °F 53.6 °F 94% 30.33 in 10.0 mi NW 8.1 mph - N/A   Light Drizzle
8:06 PM 53.6 °F 53.6 °F 100% 30.34 in 8.0 mi NW 8.1 mph - N/A   Overcast
8:13 PM 53.6 °F 53.6 °F 100% 30.34 in 8.0 mi NW 5.8 mph - N/A   Overcast
8:34 PM 53.6 °F 53.6 °F 100% 30.35 in 10.0 mi WNW 4.6 mph - N/A   Overcast
8:40 PM 53.6 °F 53.6 °F 100% 30.35 in 10.0 mi NW 4.6 mph - N/A Rain Light Rain
8:47 PM 53.6 °F 53.6 °F 100% 30.35 in 4.0 mi WNW 3.5 mph - N/A Rain Light Rain
8:50 PM 53.6 °F 53.6 °F 100% 30.35 in 3.0 mi WNW 3.5 mph - N/A Rain Rain
8:55 PM 53.6 °F 53.6 °F 100% 30.35 in 3.0 mi WNW 3.5 mph - N/A Rain Light Rain
8:56 PM 53.6 °F 53.6 °F 100% 30.35 in 4.0 mi WNW 3.5 mph - N/A Rain Light Rain
8:57 PM 53.6 °F 53.6 °F 100% 30.35 in 4.0 mi WNW 2.3 mph - N/A Rain Light Rain
8:59 PM 53.6 °F 53.6 °F 100% 30.35 in 5.0 mi WNW 3.5 mph - N/A Rain Light Rain
9:02 PM 53.6 °F 53.6 °F 100% 30.35 in 6.0 mi WNW 3.5 mph - N/A Rain Light Rain
9:08 PM 53.6 °F 53.6 °F 100% 30.35 in 5.0 mi NW 4.6 mph - N/A Rain Light Rain
9:09 PM 53.6 °F 53.6 °F 100% 30.35 in 4.0 mi NW 4.6 mph - N/A Rain Light Rain
9:12 PM 53.6 °F 53.6 °F 100% 30.35 in 3.0 mi NW 3.5 mph - N/A Rain Rain
9:13 PM 53.6 °F 53.6 °F 100% 30.35 in 3.0 mi NW 3.5 mph - N/A Rain Rain
9:16 PM 53.6 °F 53.6 °F 100% 30.35 in 2.5 mi NW 3.5 mph - N/A Rain Rain
9:19 PM 53.6 °F 53.6 °F 100% 30.35 in 3.0 mi NW 5.8 mph - N/A Rain Rain
9:24 PM 53.6 °F 53.6 °F 100% 30.35 in 4.0 mi NW 8.1 mph - N/A Rain Rain
9:30 PM 53.6 °F 53.6 °F 100% 30.35 in 5.0 mi NW 6.9 mph - N/A Rain Light Rain
9:35 PM 53.6 °F 53.6 °F 100% 30.35 in 6.0 mi NW 5.8 mph - N/A Rain Light Rain
9:44 PM 53.6 °F 53.6 °F 100% 30.35 in 10.0 mi NW 6.9 mph - N/A Rain Light Rain
9:47 PM 53.6 °F 53.6 °F 100% 30.35 in 8.0 mi NW 6.9 mph - N/A Rain Light Rain
9:55 PM 53.6 °F 53.6 °F 100% 30.36 in 8.0 mi WNW 5.8 mph - N/A Rain Light Rain
10:07 PM 53.6 °F 53.6 °F 100% 30.36 in 10.0 mi WNW 3.5 mph - N/A Rain Light Rain
10:16 PM 53.6 °F 53.6 °F 100% 30.36 in 10.0 mi NW 3.5 mph - N/A Rain Light Rain
10:20 PM 53.6 °F 53.6 °F 100% 30.36 in 9.0 mi NW 3.5 mph - N/A Rain Light Rain
10:29 PM 53.6 °F 53.6 °F 100% 30.36 in 8.0 mi NW 3.5 mph - N/A Rain Light Rain
10:46 PM 53.6 °F 53.6 °F 100% 30.36 in 10.0 mi WNW 2.3 mph - N/A Rain Light Rain
10:49 PM 53.6 °F 53.6 °F 100% 30.36 in 10.0 mi WNW 2.3 mph - N/A Rain Light Rain
10:53 PM 53.6 °F 53.6 °F 100% 30.36 in 10.0 mi WNW 3.5 mph - N/A   Light Drizzle
10:55 PM 53.6 °F 53.6 °F 100% 30.36 in 10.0 mi WNW 3.5 mph - N/A   Light Drizzle
11:05 PM 53.6 °F 53.6 °F 100% 30.36 in 10.0 mi WNW 2.3 mph - N/A   Overcast
11:41 PM 53.6 °F 53.6 °F 100% 30.35 in 8.0 mi South 3.5 mph - N/A   Overcast
11:44 PM 53.6 °F 53.6 °F 100% 30.35 in 6.0 mi South 5.8 mph - N/A   Light Drizzle
11:48 PM 53.6 °F 53.6 °F 100% 30.35 in 4.0 mi South 5.8 mph - N/A   Light Drizzle
11:53 PM 53.6 °F 53.6 °F 100% 30.35 in 3.0 mi SSE 5.8 mph - N/A Rain Light Rain
11:55 PM 53.6 °F 53.6 °F 100% 30.35 in 4.0 mi SSE 4.6 mph - N/A Rain Light Rain